Tracking 27380 objects as of 6-Jun-2023
HD Live streaming from Space Station
objects crossing your sky now

OPS 4682 DEB

Track OPS 4682 DEB now!
10-day predictions


NORAD ID: 18670
Int'l Code: 1965-027AG
Perigee: 1,262.0 km
Apogee: 1,304.6 km
Inclination: 90.3 °
Period: 111.1 minutes
Semi major axis: 7654 km
RCS: 0.0137 m2 (small)
Launch date: April 3, 1965
Source: United States (US)
Launch site: AIR FORCE WESTERN TEST RANGE (AFWTR)

Note: This is SATELLITE DEBRIS
Your satellite tracking list
Your tracking list is empty




NASA's NSSDC Master Catalog

Two Line Element Set (TLE):
1 18670U 65027AG  23156.93996026  .00000527  00000-0  18139-2 0  9991
2 18670  90.2634 331.2984 0027843 164.6539 195.5431 12.96413460519263
Source of the keplerian elements: AFSPC